YO8RBY-13 Weather Reports


time (UTC)temp
C
wind
direction
speed
KPH
gust
KPH
rain 1hr
cm
rain 24hr
cm
rain mn
cm
humidity
%
barometer
mb
20260507165355 18 0.0 0.0 0.00 0.00 0.00 10 971.0
20260507164354 18 0.0 0.0 0.00 0.00 0.00 10 970.9
20260507163354 18 0.0 0.0 0.00 0.00 0.00 10 971.0
20260507162354 18 0.0 0.0 0.00 0.00 0.00 10 970.9
20260507161354 19 0.0 0.0 0.00 0.00 0.00 10 970.8
20260507160354 19 0.0 0.0 0.00 0.00 0.00 95 970.8
20260507155425 20 0.0 0.0 0.00 0.00 0.00 94 970.9
20260507154355 19 0.0 0.0 0.00 0.00 0.00 95 970.9
20260507153357 20 0.0 0.0 0.00 0.00 0.00 94 970.9
20260507152354 20 0.0 0.0 0.00 0.00 0.00 90 970.8
20260507151354 20 0.0 0.0 0.00 0.00 0.00 85 970.9
20260507150354 21 0.0 0.0 0.00 0.00 0.00 83 970.9
20260507145355 21 0.0 0.0 0.00 0.00 0.00 87 971.1
20260507144354 20 0.0 0.0 0.00 0.00 0.00 90 971.0
20260507143410 20 0.0 0.0 0.00 0.00 0.00 89 971.1
20260507142411 21 0.0 0.0 0.00 0.00 0.00 81 971.2
20260507141355 21 0.0 0.0 0.00 0.00 0.00 76 971.2
20260507140354 22 0.0 0.0 0.00 0.00 0.00 68 971.2
20260507135354 21 0.0 0.0 0.00 0.00 0.00 81 971.2
20260507134354 22 0.0 0.0 0.00 0.00 0.00 76 971.4
20260507133354 22 0.0 0.0 0.00 0.00 0.00 71 971.4
20260507132354 22 0.0 0.0 0.00 0.00 0.00 66 971.5
20260507131354 22 0.0 0.0 0.00 0.00 0.00 72 971.5
20260507130354 22 0.0 0.0 0.00 0.00 0.00 74 971.5
20260507125354 22 0.0 0.0 0.00 0.00 0.00 64 971.6
20260507124354 23 0.0 0.0 0.00 0.00 0.00 61 971.7
20260507123354 23 0.0 0.0 0.00 0.00 0.00 58 971.8
20260507122354 23 0.0 0.0 0.00 0.00 0.00 64 971.9
20260507121354 23 0.0 0.0 0.00 0.00 0.00 62 971.9
20260507120427 23 0.0 0.0 0.00 0.00 0.00 65 972.1
20260507115354 23 0.0 0.0 0.00 0.00 0.00 59 972.1
20260507114355 23 0.0 0.0 0.00 0.00 0.00 69 972.1
20260507113354 23 0.0 0.0 0.00 0.00 0.00 69 972.2
20260507112354 23 0.0 0.0 0.00 0.00 0.00 68 972.1
20260507111355 23 0.0 0.0 0.00 0.00 0.00 60 972.2
20260507110354 23 0.0 0.0 0.00 0.00 0.00 63 972.2
20260507105354 23 0.0 0.0 0.00 0.00 0.00 69 972.3
20260507104410 23 0.0 0.0 0.00 0.00 0.00 80 972.2
20260507103354 23 0.0 0.0 0.00 0.00 0.00 81 972.3
20260507102357 23 0.0 0.0 0.00 0.00 0.00 80 972.5
20260507101354 22 0.0 0.0 0.00 0.00 0.00 78 972.5
20260507100409 23 0.0 0.0 0.00 0.00 0.00 80 972.6
20260507095354 22 0.0 0.0 0.00 0.00 0.00 85 972.7
20260507094355 21 0.0 0.0 0.00 0.00 0.00 85 972.8
20260507093354 21 0.0 0.0 0.00 0.00 0.00 89 972.8
20260507092354 21 0.0 0.0 0.00 0.00 0.00 90 972.8
20260507091409 21 0.0 0.0 0.00 0.00 0.00 94 972.8
20260507090354 21 0.0 0.0 0.00 0.00 0.00 96 972.9
20260507085354 21 0.0 0.0 0.00 0.00 0.00 96 972.8
20260507084354 20 0.0 0.0 0.00 0.00 0.00 10 972.9
20260507083356 19 0.0 0.0 0.00 0.00 0.00 10 972.9
20260507082354 19 0.0 0.0 0.00 0.00 0.00 10 973.0
20260507081409 20 0.0 0.0 0.00 0.00 0.00 10 973.0
20260507080424 20 0.0 0.0 0.00 0.00 0.00 10 973.1
20260507075354 20 0.0 0.0 0.00 0.00 0.00 10 973.1
20260507074409 20 0.0 0.0 0.00 0.00 0.00 10 973.1
20260507073355 18 0.0 0.0 0.00 0.00 0.00 10 973.1
20260507072355 18 0.0 0.0 0.00 0.00 0.00 10 973.1
20260507071354 18 0.0 0.0 0.00 0.00 0.00 10 973.0
20260507070355 18 0.0 0.0 0.00 0.00 0.00 10 973.0
20260507065355 18 0.0 0.0 0.00 0.00 0.00 10 972.9
20260507064354 18 0.0 0.0 0.00 0.00 0.00 10 973.0
20260507063355 17 0.0 0.0 0.00 0.00 0.00 10 973.0
20260507062354 17 0.0 0.0 0.00 0.00 0.00 10 972.9
20260507061409 19 0.0 0.0 0.00 0.00 0.00 10 972.9
20260507060415 19 0.0 0.0 0.00 0.00 0.00 98 972.8
20260507055354 19 0.0 0.0 0.00 0.00 0.00 10 972.8
20260507054358 18 0.0 0.0 0.00 0.00 0.00 10 972.9
20260507053355 17 0.0 0.0 0.00 0.00 0.00 10 972.8
20260507052357 16 0.0 0.0 0.00 0.00 0.00 10 972.8
20260507051356 15 0.0 0.0 0.00 0.00 0.00 10 972.8
20260507050354 15 0.0 0.0 0.00 0.00 0.00 10 972.8
20260507045356 13 0.0 0.0 0.00 0.00 0.00 10 972.6
20260507044354 12 0.0 0.0 0.00 0.00 0.00 10 972.3
20260507043354 11 0.0 0.0 0.00 0.00 0.00 10 971.6
20260507042355 9 0.0 0.0 0.00 0.00 0.00 10 969.5
20260507041354 8 0.0 0.0 0.00 0.00 0.00 10 969.1
20260507040354 7 0.0 0.0 0.00 0.00 0.00 10 968.9
20260507035409 7 0.0 0.0 0.00 0.00 0.00 10 968.7
20260507034409 7 0.0 0.0 0.00 0.00 0.00 10 968.5
20260507033354 6 0.0 0.0 0.00 0.00 0.00 10 968.5
20260507032354 6 0.0 0.0 0.00 0.00 0.00 10 968.4
20260507031410 6 0.0 0.0 0.00 0.00 0.00 10 968.3
20260507030353 6 0.0 0.0 0.00 0.00 0.00 10 968.3
20260507025355 6 0.0 0.0 0.00 0.00 0.00 10 968.4
20260507024353 6 0.0 0.0 0.00 0.00 0.00 10 968.5
20260507023354 6 0.0 0.0 0.00 0.00 0.00 10 968.5
20260507022355 6 0.0 0.0 0.00 0.00 0.00 10 968.7
20260507021355 6 0.0 0.0 0.00 0.00 0.00 10 968.9
20260507020354 7 0.0 0.0 0.00 0.00 0.00 10 968.9
20260507015353 7 0.0 0.0 0.00 0.00 0.00 10 969.0
20260507014355 7 0.0 0.0 0.00 0.00 0.00 10 969.1
20260507013355 7 0.0 0.0 0.00 0.00 0.00 10 969.3
20260507012354 8 0.0 0.0 0.00 0.00 0.00 10 969.6
20260507011355 8 0.0 0.0 0.00 0.00 0.00 10 969.5
20260507010356 7 0.0 0.0 0.00 0.00 0.00 10 969.3
20260507005354 7 0.0 0.0 0.00 0.00 0.00 10 969.4
20260507004353 8 0.0 0.0 0.00 0.00 0.00 10 969.5
20260507003354 8 0.0 0.0 0.00 0.00 0.00 10 969.4
20260507002424 8 0.0 0.0 0.00 0.00 0.00 10 969.9
20260507001354 8 0.0 0.0 0.00 0.00 0.00 10 969.9
20260507000353 8 0.0 0.0 0.00 0.00 0.00 10 969.5
20260506235353 8 0.0 0.0 0.00 0.00 0.00 10 969.6
20260506234355 8 0.0 0.0 0.00 0.00 0.00 10 969.3
20260506233354 8 0.0 0.0 0.00 0.00 0.00 10 969.3
20260506232356 8 0.0 0.0 0.00 0.00 0.00 10 969.4
20260506231354 8 0.0 0.0 0.00 0.00 0.00 10 969.6
20260506230354 8 0.0 0.0 0.00 0.00 0.00 10 970.0
20260506225353 9 0.0 0.0 0.00 0.00 0.00 10 970.2
20260506224355 8 0.0 0.0 0.00 0.00 0.00 10 969.9
20260506223414 8 0.0 0.0 0.00 0.00 0.00 10 970.2
20260506222355 9 0.0 0.0 0.00 0.00 0.00 10 970.3
20260506221353 10 0.0 0.0 0.00 0.00 0.00 10 970.3
20260506220354 9 0.0 0.0 0.00 0.00 0.00 10 970.3
20260506215354 10 0.0 0.0 0.00 0.00 0.00 10 970.5
20260506214353 10 0.0 0.0 0.00 0.00 0.00 10 970.7
20260506213354 10 0.0 0.0 0.00 0.00 0.00 10 970.7
20260506212354 10 0.0 0.0 0.00 0.00 0.00 10 970.7
20260506211353 11 0.0 0.0 0.00 0.00 0.00 10 971.1
20260506210354 11 0.0 0.0 0.00 0.00 0.00 10 971.4
20260506205409 11 0.0 0.0 0.00 0.00 0.00 10 971.3
20260506204353 11 0.0 0.0 0.00 0.00 0.00 10 971.2
20260506203353 11 0.0 0.0 0.00 0.00 0.00 10 971.2
20260506202354 12 0.0 0.0 0.00 0.00 0.00 10 971.4
20260506201353 12 0.0 0.0 0.00 0.00 0.00 10 971.5
20260506200357 12 0.0 0.0 0.00 0.00 0.00 10 971.5
20260506195353 13 0.0 0.0 0.00 0.00 0.00 10 971.5
20260506194441 13 0.0 0.0 0.00 0.00 0.00 10 971.5
20260506193356 13 0.0 0.0 0.00 0.00 0.00 10 971.6
20260506192353 13 0.0 0.0 0.00 0.00 0.00 10 971.5
20260506191355 13 0.0 0.0 0.00 0.00 0.00 10 971.4
20260506190353 13 0.0 0.0 0.00 0.00 0.00 10 971.3
20260506185356 13 0.0 0.0 0.00 0.00 0.00 10 971.3
20260506184354 13 0.0 0.0 0.00 0.00 0.00 10 971.3
20260506183410 14 0.0 0.0 0.00 0.00 0.00 10 971.2
20260506182439 14 0.0 0.0 0.00 0.00 0.00 10 971.1
20260506181353 15 0.0 0.0 0.00 0.00 0.00 10 971.0
20260506180425 16 0.0 0.0 0.00 0.00 0.00 10 970.8
20260506175353 16 0.0 0.0 0.00 0.00 0.00 10 970.7
20260506174354 17 0.0 0.0 0.00 0.00 0.00 99 970.6
20260506173355 17 0.0 0.0 0.00 0.00 0.00 95 970.6
20260506172353 18 0.0 0.0 0.00 0.00 0.00 92 970.4
20260506171353 18 0.0 0.0 0.00 0.00 0.00 83 970.3
20260506170353 19 0.0 0.0 0.00 0.00 0.00 76 970.3